Location: *
(45.9500°N, 9.0833°E)
Time: 06:30:58
(UTC+00:00)

SR - Pass Details

Date: 21 June 2021
Orbit: 577 x 878 km, 66.7° (Epoch: 24 July)

Event Time Altitude Azimuth Distance (km) Brightness Sun altitude
Rises 15:39:34 0° 213° (SSW) 3,449 ? 34.8°
Reaches altitude 10° 15:42:02 10° 214° (SSW) 2,524 ? 34.4°
Maximum altitude 15:47:58 85° 301° (WNW) 883 ? 33.3°
Drops below altitude 10° 15:53:48 10° 32° (NNE) 2,487 ? 32.3°
Sets 15:56:14 0° 34° (NNE) 3,396 ? 31.9°
